DAL1959 KATL-ESSA

Flight info

Callsign DAL1959
Flight time 8h 35m
Altitude 37000
Route ZELAN4 SMTTH DCT APE J83 DJB DCT AXXIS DCT GRAMP/N0493F390 DCT YGL DCT HELMO DCT DAXER DCT AYROU/M085F390 DCT EPMAN DCT 67N050W 67N040W/M085F410 67N030W 66N020W 65N015W 65N010W DCT IPTON/N0497F410 DCT EMLER DCT ROGED DCT ELTOK
Aircraft A359/H-SDE2E3GHIJ3J4J5LM1ORWXY/LB1D1

Departure

Time 2026-05-04 15:18
Airport Hartsfield Jackson Atlanta International Airport (KATL)

Arrival

Time 2026-05-04 23:54
Airport Stockholm-Arlanda Airport (ESSA)
Time Latitude Longitude Altitude Speed Heading
2026-05-04 15:05 33.64290 -84.43460 1012 ft 3 kts 191°
2026-05-04 15:06 33.64295 -84.43458 1012 ft 4 kts 180°
2026-05-04 15:10 33.64076 -84.43468 1012 ft 0 kts 181°
2026-05-04 15:11 33.64059 -84.43468 1012 ft 12 kts 180°
2026-05-04 15:11 33.63943 -84.43460 1012 ft 18 kts 176°
2026-05-04 15:11 33.63822 -84.43456 1012 ft 16 kts 180°
2026-05-04 15:11 33.63722 -84.43456 1012 ft 6 kts 180°
2026-05-04 15:12 33.63678 -84.43456 1012 ft 7 kts 179°
2026-05-04 15:12 33.63629 -84.43435 1012 ft 9 kts 151°
2026-05-04 15:12 33.63581 -84.43331 1012 ft 17 kts 96°
2026-05-04 15:12 33.63573 -84.43192 1012 ft 18 kts 90°
2026-05-04 15:13 33.63581 -84.43042 1012 ft 18 kts 87°
2026-05-04 15:13 33.63581 -84.42886 1012 ft 19 kts 90°
2026-05-04 15:13 33.63580 -84.42723 1013 ft 20 kts 90°
2026-05-04 15:13 33.63579 -84.42556 1013 ft 20 kts 90°
2026-05-04 15:14 33.63579 -84.42386 1013 ft 21 kts 90°
2026-05-04 15:14 33.63579 -84.42208 1013 ft 22 kts 90°
2026-05-04 15:14 33.63581 -84.42025 1013 ft 22 kts 89°
2026-05-04 15:14 33.63581 -84.41835 1012 ft 23 kts 90°
2026-05-04 15:15 33.63581 -84.41636 1012 ft 24 kts 90°
2026-05-04 15:15 33.63582 -84.41433 1011 ft 25 kts 90°
2026-05-04 15:15 33.63582 -84.41225 1012 ft 25 kts 90°
2026-05-04 15:16 33.63581 -84.40984 1012 ft 0 kts 91°
2026-05-04 15:16 33.63547 -84.40911 1013 ft 15 kts 152°
2026-05-04 15:17 33.63479 -84.40953 1013 ft 11 kts 250°
2026-05-04 15:17 33.63471 -84.41823 1013 ft 109 kts 270°
2026-05-04 15:17 33.63470 -84.42950 1013 ft 158 kts 269°
2026-05-04 15:18 33.63456 -84.44376 1355 ft 175 kts 269°
2026-05-04 15:18 33.63435 -84.45853 1949 ft 181 kts 268°
2026-05-04 15:18 33.63430 -84.47388 2573 ft 190 kts 270°
2026-05-04 15:19 33.63456 -84.50791 3351 ft 212 kts 270°
2026-05-04 15:19 33.63563 -84.52568 3891 ft 215 kts 279°
2026-05-04 15:19 33.64830 -84.55835 4948 ft 221 kts 309°
2026-05-04 15:20 33.65975 -84.57065 5493 ft 223 kts 324°
2026-05-04 15:20 33.67368 -84.57901 5995 ft 226 kts 340°
2026-05-04 15:20 33.68911 -84.58270 6521 ft 229 kts 353°
2026-05-04 15:20 33.70541 -84.58300 6815 ft 242 kts 359°
2026-05-04 15:21 33.72288 -84.58251 6985 ft 260 kts
2026-05-04 15:21 33.74151 -84.58198 7340 ft 271 kts
2026-05-04 15:21 33.78002 -84.58134 8389 ft 280 kts 359°
2026-05-04 15:22 33.79949 -84.58111 8895 ft 284 kts 360°
2026-05-04 15:22 33.81941 -84.57807 9442 ft 289 kts 14°
2026-05-04 15:22 33.85835 -84.56368 10402 ft 303 kts 16°
2026-05-04 15:23 33.87904 -84.55592 10660 ft 317 kts 16°
2026-05-04 15:23 33.90036 -84.54802 10923 ft 329 kts 16°
2026-05-04 15:23 33.92252 -84.53982 11196 ft 341 kts 16°
2026-05-04 15:23 33.94567 -84.53126 11467 ft 352 kts 16°
2026-05-04 15:24 33.99410 -84.51340 12018 ft 372 kts 16°
2026-05-04 15:24 34.04404 -84.49493 12862 ft 379 kts 15°
2026-05-04 15:25 34.06924 -84.48562 13299 ft 382 kts 15°
2026-05-04 15:25 34.09462 -84.47626 13763 ft 384 kts 15°
2026-05-04 15:25 34.12036 -84.46673 14222 ft 386 kts 14°
2026-05-04 15:26 34.17208 -84.44755 15148 ft 389 kts 14°
2026-05-04 15:26 34.19771 -84.43820 15583 ft 391 kts 13°
2026-05-04 15:26 34.25014 -84.41906 16470 ft 395 kts 13°
2026-05-04 15:27 34.27631 -84.40925 16891 ft 397 kts 13°
2026-05-04 15:27 34.32981 -84.39328 17726 ft 397 kts
2026-05-04 15:28 34.38436 -84.38018 18526 ft 401 kts
2026-05-04 15:28 34.41173 -84.37365 18873 ft 403 kts
2026-05-04 15:28 34.46743 -84.36022 19546 ft 409 kts
2026-05-04 15:29 34.49559 -84.35343 19871 ft 412 kts
2026-05-04 15:30 34.60906 -84.32602 21183 ft 420 kts
2026-05-04 15:30 34.69573 -84.30502 22053 ft 427 kts
2026-05-04 15:31 34.74392 -84.29332 22533 ft 430 kts
2026-05-04 15:31 34.77355 -84.28613 22814 ft 432 kts
2026-05-04 15:32 34.87251 -84.26208 23688 ft 438 kts
2026-05-04 15:32 34.92262 -84.24984 24109 ft 442 kts
2026-05-04 15:33 34.98305 -84.23507 24642 ft 445 kts
2026-05-04 15:34 35.07461 -84.21269 25362 ft 451 kts
2026-05-04 15:34 35.10556 -84.20511 25615 ft 453 kts
2026-05-04 15:34 35.16746 -84.18994 26111 ft 456 kts
2026-05-04 15:35 35.23025 -84.17451 26602 ft 461 kts
2026-05-04 15:35 35.26170 -84.16678 26879 ft 462 kts
2026-05-04 15:35 35.29317 -84.15904 27099 ft 464 kts
2026-05-04 15:36 35.35682 -84.14335 27611 ft 468 kts
2026-05-04 15:36 35.38880 -84.13546 27877 ft 470 kts
2026-05-04 15:36 35.42101 -84.12750 28121 ft 473 kts
2026-05-04 15:37 35.45332 -84.11951 28374 ft 475 kts
2026-05-04 15:37 35.48561 -84.11153 28628 ft 477 kts
2026-05-04 15:37 35.51805 -84.10351 28840 ft 479 kts
2026-05-04 15:37 35.55100 -84.09535 29105 ft 481 kts
2026-05-04 15:38 35.58393 -84.08718 29362 ft 483 kts
2026-05-04 15:38 35.61710 -84.07896 29586 ft 485 kts
2026-05-04 15:38 35.64978 -84.07084 29834 ft 487 kts
2026-05-04 15:38 35.68332 -84.06251 30062 ft 489 kts
2026-05-04 15:39 35.71656 -84.05424 30305 ft 491 kts
2026-05-04 15:39 35.74998 -84.04591 30580 ft 492 kts
2026-05-04 15:39 35.81761 -84.02907 31126 ft 494 kts
2026-05-04 15:40 35.85093 -84.02073 31509 ft 492 kts
2026-05-04 15:40 35.88458 -84.01230 31919 ft 489 kts
2026-05-04 15:40 35.91752 -84.00409 32263 ft 488 kts
2026-05-04 15:40 35.95066 -83.99513 32599 ft 488 kts
2026-05-04 15:41 35.98389 -83.98486 32957 ft 487 kts
2026-05-04 15:41 36.01629 -83.97439 33320 ft 486 kts
2026-05-04 15:41 36.04891 -83.96344 33647 ft 485 kts
2026-05-04 15:41 36.08146 -83.95251 33982 ft 483 kts
2026-05-04 15:42 36.11363 -83.94189 34343 ft 481 kts
2026-05-04 15:42 36.14614 -83.93136 34641 ft 480 kts
2026-05-04 15:42 36.17840 -83.92104 34913 ft 479 kts
2026-05-04 15:42 36.21093 -83.91070 35162 ft 479 kts
2026-05-04 15:43 36.24294 -83.90055 35413 ft 479 kts
2026-05-04 15:43 36.27512 -83.89034 35640 ft 480 kts
2026-05-04 15:43 36.30752 -83.88007 35868 ft 480 kts
2026-05-04 15:43 36.34007 -83.86973 36121 ft 480 kts
2026-05-04 15:44 36.37259 -83.85938 36363 ft 480 kts
2026-05-04 15:44 36.40496 -83.84906 36600 ft 479 kts
2026-05-04 15:44 36.43703 -83.83881 36855 ft 479 kts
2026-05-04 15:44 36.46922 -83.82852 37047 ft 479 kts
2026-05-04 15:45 36.50181 -83.81810 37092 ft 482 kts
2026-05-04 15:45 36.56620 -83.79744 37099 ft 477 kts
2026-05-04 15:46 36.62993 -83.77696 37100 ft 475 kts
2026-05-04 15:46 36.69424 -83.75629 37108 ft 474 kts
2026-05-04 15:47 36.75808 -83.73577 37098 ft 474 kts
2026-05-04 15:47 36.82178 -83.71523 37099 ft 475 kts
2026-05-04 15:48 36.88596 -83.69449 37091 ft 475 kts
2026-05-04 15:48 36.98181 -83.66341 37093 ft 474 kts
2026-05-04 15:49 37.04518 -83.64286 37084 ft 474 kts
2026-05-04 15:49 37.10924 -83.62201 37074 ft 473 kts
2026-05-04 15:50 37.17264 -83.60138 37073 ft 473 kts
2026-05-04 15:50 37.23640 -83.58062 37064 ft 473 kts
2026-05-04 15:51 37.30013 -83.55978 37062 ft 473 kts
2026-05-04 15:51 37.36391 -83.53889 37063 ft 472 kts
2026-05-04 15:52 37.42695 -83.51824 37056 ft 472 kts
2026-05-04 15:52 37.49084 -83.49725 37055 ft 472 kts
2026-05-04 15:53 37.55422 -83.47638 37043 ft 472 kts
2026-05-04 15:53 37.61761 -83.45549 37048 ft 471 kts
2026-05-04 15:54 37.68105 -83.43457 37042 ft 471 kts
2026-05-04 15:54 37.74424 -83.41365 37049 ft 472 kts
2026-05-04 15:55 37.80781 -83.39256 37032 ft 472 kts
2026-05-04 15:55 37.87114 -83.37152 37018 ft 471 kts
2026-05-04 15:56 37.93463 -83.35041 37010 ft 472 kts
2026-05-04 15:56 37.99839 -83.32917 36999 ft 472 kts
2026-05-04 15:57 38.06192 -83.30796 36995 ft 471 kts
2026-05-04 15:57 38.12524 -83.28677 36990 ft 470 kts
2026-05-04 15:58 38.18821 -83.26567 36991 ft 470 kts
2026-05-04 15:58 38.25159 -83.24440 36975 ft 470 kts
2026-05-04 15:59 38.31484 -83.22317 36971 ft 470 kts
2026-05-04 15:59 38.37794 -83.20193 36971 ft 470 kts
2026-05-04 16:00 38.44148 -83.18049 36971 ft 470 kts
2026-05-04 16:00 38.50487 -83.15906 36978 ft 470 kts
2026-05-04 16:01 38.56799 -83.13764 36980 ft 470 kts
2026-05-04 16:01 38.63086 -83.11629 36963 ft 470 kts
2026-05-04 16:02 38.69421 -83.09477 36961 ft 470 kts
2026-05-04 16:03 38.78908 -83.06246 36952 ft 470 kts
2026-05-04 16:03 38.85200 -83.04098 36952 ft 470 kts
2026-05-04 16:04 38.91532 -83.01930 36939 ft 470 kts
2026-05-04 16:04 39.00968 -82.98696 36928 ft 469 kts
2026-05-04 16:05 39.07304 -82.96518 36929 ft 469 kts
2026-05-04 16:06 39.16737 -82.93267 36916 ft 469 kts
2026-05-04 16:07 39.29344 -82.88914 36921 ft 469 kts
2026-05-04 16:08 39.41945 -82.84543 36912 ft 468 kts
2026-05-04 16:09 39.57670 -82.79065 36898 ft 468 kts
2026-05-04 16:10 39.69726 -82.74847 36904 ft 468 kts
2026-05-04 16:11 39.82320 -82.70427 36901 ft 469 kts
2026-05-04 16:12 40.01210 -82.63765 36885 ft 468 kts
2026-05-04 16:13 40.13741 -82.59320 36887 ft 467 kts 10°
2026-05-04 16:14 40.26293 -82.54940 36877 ft 467 kts
2026-05-04 16:16 40.41992 -82.49479 36880 ft 467 kts
2026-05-04 16:17 40.57673 -82.43985 36872 ft 467 kts
2026-05-04 16:18 40.69187 -82.39928 36869 ft 466 kts
2026-05-04 16:19 40.84852 -82.34395 36859 ft 466 kts
2026-05-04 16:20 41.00488 -82.28844 36850 ft 465 kts
2026-05-04 16:22 41.16099 -82.23275 36834 ft 465 kts
2026-05-04 16:23 41.34795 -82.16635 36828 ft 461 kts
2026-05-04 16:25 41.53732 -82.14053 36812 ft 454 kts 360°
2026-05-04 16:26 41.75738 -82.11437 36804 ft 453 kts 360°
2026-05-04 16:28 41.91407 -82.09549 36795 ft 453 kts 360°
2026-05-04 16:29 42.13391 -82.06894 36776 ft 453 kts 360°
2026-05-04 16:31 42.29095 -82.04982 36767 ft 453 kts 360°
2026-05-04 16:32 42.47928 -82.02680 36767 ft 453 kts 360°
2026-05-04 16:33 42.60487 -82.01128 36758 ft 453 kts 359°
2026-05-04 16:34 42.69924 -81.99966 36748 ft 454 kts 360°
2026-05-04 16:35 42.88756 -81.96895 36730 ft 457 kts
2026-05-04 16:36 42.98142 -81.94484 36720 ft 457 kts
2026-05-04 16:37 43.07527 -81.92051 36721 ft 457 kts
2026-05-04 16:38 43.20011 -81.88824 36721 ft 458 kts
2026-05-04 16:39 43.35645 -81.84756 36720 ft 457 kts
2026-05-04 16:40 43.48146 -81.81498 36711 ft 457 kts
2026-05-04 16:41 43.63789 -81.77393 36701 ft 457 kts
2026-05-04 16:43 43.79411 -81.73275 36691 ft 458 kts
2026-05-04 16:43 43.88808 -81.70785 36679 ft 458 kts
2026-05-04 16:45 44.07561 -81.65791 36656 ft 458 kts
2026-05-04 16:46 44.23227 -81.61598 36655 ft 458 kts
2026-05-04 16:47 44.35731 -81.58230 36653 ft 458 kts
2026-05-04 16:48 44.48283 -81.54843 36656 ft 459 kts
2026-05-04 16:49 44.60805 -81.51443 36654 ft 460 kts
2026-05-04 16:50 44.73375 -81.48016 36655 ft 460 kts
2026-05-04 16:51 44.82799 -81.45443 36646 ft 461 kts
2026-05-04 16:52 44.95367 -81.41988 36646 ft 462 kts
2026-05-04 16:53 45.04872 -81.39366 36645 ft 462 kts
2026-05-04 16:54 45.17478 -81.35875 36637 ft 462 kts
2026-05-04 16:55 45.36430 -81.30594 36627 ft 463 kts
2026-05-04 16:56 45.52230 -81.26165 36617 ft 464 kts
2026-05-04 16:57 45.61730 -81.23494 36618 ft 464 kts
2026-05-04 16:58 45.74374 -81.19921 36611 ft 463 kts
2026-05-04 17:00 45.93364 -81.14526 36600 ft 464 kts
2026-05-04 17:01 46.09234 -81.09985 36598 ft 467 kts
2026-05-04 17:02 46.21981 -81.06319 36608 ft 467 kts
2026-05-04 17:03 46.31535 -81.03558 36607 ft 468 kts
2026-05-04 17:03 46.41106 -81.00784 36610 ft 468 kts
2026-05-04 17:04 46.52837 -80.97369 36608 ft 468 kts
2026-05-04 17:05 46.65635 -80.93627 36608 ft 469 kts
2026-05-04 17:06 46.75219 -80.90814 36608 ft 469 kts
2026-05-04 17:07 46.83718 -80.88311 36608 ft 469 kts
2026-05-04 17:07 46.91186 -80.86106 36599 ft 469 kts
2026-05-04 17:08 47.00753 -80.83267 36599 ft 469 kts
2026-05-04 17:09 47.07137 -80.81389 36589 ft 469 kts
2026-05-04 17:09 47.13525 -80.79477 36589 ft 470 kts
2026-05-04 17:10 47.29552 -80.74670 36581 ft 470 kts
2026-05-04 17:11 47.35936 -80.72752 36580 ft 470 kts
2026-05-04 17:12 47.45547 -80.69852 36570 ft 470 kts
2026-05-04 17:13 47.61586 -80.64998 36561 ft 471 kts
2026-05-04 17:14 47.74444 -80.61076 36556 ft 472 kts
2026-05-04 17:15 47.84050 -80.58128 36551 ft 472 kts
2026-05-04 17:16 47.96903 -80.54177 36546 ft 471 kts
2026-05-04 17:17 48.09813 -80.50187 36534 ft 473 kts
2026-05-04 17:18 48.22705 -80.46182 36530 ft 473 kts
2026-05-04 17:19 48.35579 -80.42164 36516 ft 473 kts
2026-05-04 17:20 48.48440 -80.38126 36475 ft 475 kts
2026-05-04 17:20 48.58259 -80.35036 36471 ft 483 kts
2026-05-04 17:21 48.71430 -80.30860 36449 ft 484 kts
2026-05-04 17:22 48.78045 -80.28753 36449 ft 485 kts
2026-05-04 17:23 48.91222 -80.24545 36439 ft 485 kts
2026-05-04 17:23 48.97848 -80.22422 36713 ft 485 kts
2026-05-04 17:24 49.01157 -80.21357 37004 ft 483 kts
2026-05-04 17:24 49.10952 -80.18200 37691 ft 482 kts
2026-05-04 17:25 49.14262 -80.17133 37840 ft 483 kts
2026-05-04 17:25 49.20827 -80.15025 38147 ft 484 kts
2026-05-04 17:26 49.27432 -80.12878 38394 ft 487 kts
2026-05-04 17:27 49.44152 -80.07437 38476 ft 492 kts
2026-05-04 17:28 49.57533 -80.03019 38488 ft 493 kts
2026-05-04 17:29 49.77377 -79.94400 38468 ft 496 kts 17°
2026-05-04 17:31 49.93698 -79.85702 38460 ft 497 kts 17°
2026-05-04 17:32 50.10035 -79.76975 38477 ft 497 kts 17°
2026-05-04 17:33 50.23083 -79.69960 38478 ft 497 kts 17°
2026-05-04 17:34 50.36186 -79.62871 38477 ft 500 kts 17°
2026-05-04 17:35 50.52542 -79.53997 38468 ft 497 kts 17°
2026-05-04 17:36 50.59095 -79.50419 38467 ft 498 kts 17°
2026-05-04 17:36 50.65619 -79.46811 38469 ft 498 kts 17°
2026-05-04 17:37 50.72160 -79.43199 38468 ft 498 kts 17°
2026-05-04 17:37 50.78694 -79.39588 38468 ft 499 kts 17°
2026-05-04 17:38 50.85239 -79.35965 38467 ft 499 kts 18°
2026-05-04 17:38 50.91784 -79.32330 38467 ft 499 kts 18°
2026-05-04 17:39 51.01590 -79.26863 38475 ft 499 kts 18°
2026-05-04 17:39 51.08126 -79.23206 38477 ft 499 kts 18°
2026-05-04 17:40 51.14710 -79.19514 38476 ft 499 kts 18°
2026-05-04 17:40 51.21252 -79.15829 38478 ft 499 kts 18°
2026-05-04 17:41 51.27802 -79.12127 38477 ft 499 kts 18°
2026-05-04 17:41 51.34307 -79.08441 38477 ft 499 kts 18°
2026-05-04 17:42 51.40864 -79.04718 38487 ft 500 kts 18°
2026-05-04 17:42 51.47414 -79.00986 38484 ft 499 kts 19°
2026-05-04 17:43 51.53982 -78.97230 38488 ft 499 kts 19°
2026-05-04 17:43 51.60502 -78.93487 38489 ft 500 kts 19°
2026-05-04 17:44 51.67065 -78.89713 38487 ft 500 kts 19°
2026-05-04 17:44 51.73605 -78.85943 38487 ft 499 kts 19°
2026-05-04 17:45 51.80140 -78.82162 38482 ft 500 kts 19°
2026-05-04 17:45 51.86705 -78.78350 38477 ft 500 kts 19°
2026-05-04 17:46 51.93242 -78.74541 38476 ft 500 kts 19°
2026-05-04 17:46 51.99772 -78.70729 38488 ft 500 kts 19°
2026-05-04 17:47 52.06286 -78.66915 38488 ft 500 kts 19°
2026-05-04 17:47 52.12861 -78.63053 38486 ft 501 kts 19°
2026-05-04 17:48 52.19398 -78.59196 38484 ft 501 kts 19°
2026-05-04 17:48 52.25947 -78.55321 38487 ft 501 kts 19°
2026-05-04 17:49 52.32532 -78.51412 38484 ft 501 kts 20°
2026-05-04 17:49 52.39086 -78.47511 38486 ft 501 kts 19°
2026-05-04 17:50 52.45606 -78.43621 38486 ft 501 kts 20°
2026-05-04 17:50 52.52181 -78.39681 38486 ft 501 kts 20°
2026-05-04 17:51 52.58707 -78.35763 38492 ft 501 kts 19°
2026-05-04 17:51 52.65271 -78.31809 38499 ft 502 kts 20°
2026-05-04 17:52 52.71822 -78.27845 38495 ft 503 kts 20°
2026-05-04 17:52 52.78394 -78.23857 38494 ft 503 kts 20°
2026-05-04 17:53 52.83869 -78.20525 38508 ft 503 kts 20°
2026-05-04 17:53 52.90447 -78.16510 38510 ft 503 kts 20°
2026-05-04 17:54 52.97003 -78.12497 38506 ft 504 kts 20°
2026-05-04 17:54 53.03565 -78.08466 38512 ft 504 kts 20°
2026-05-04 17:55 53.10180 -78.04387 38513 ft 504 kts 20°
2026-05-04 17:55 53.16749 -78.00327 38514 ft 505 kts 20°
2026-05-04 17:56 53.23331 -77.96245 38520 ft 506 kts 20°
2026-05-04 17:56 53.29930 -77.92138 38524 ft 506 kts 20°
2026-05-04 17:57 53.36541 -77.88013 38525 ft 507 kts 20°
2026-05-04 17:57 53.43156 -77.83870 38522 ft 507 kts 20°
2026-05-04 17:58 53.49769 -77.79711 38523 ft 508 kts 20°
2026-05-04 17:58 53.56368 -77.75548 38523 ft 507 kts 20°
2026-05-04 17:59 53.62888 -77.71014 38523 ft 508 kts 29°
2026-05-04 18:00 53.71942 -77.61755 38525 ft 507 kts 32°
2026-05-04 18:00 53.77862 -77.55405 38521 ft 508 kts 33°
2026-05-04 18:01 53.83836 -77.48981 38521 ft 507 kts 32°
2026-05-04 18:01 53.89770 -77.42600 38521 ft 507 kts 32°
2026-05-04 18:02 53.98741 -77.32931 38533 ft 507 kts 33°
2026-05-04 18:02 54.04697 -77.26479 38536 ft 508 kts 33°
2026-05-04 18:03 54.10616 -77.20049 38540 ft 508 kts 33°
2026-05-04 18:03 54.16569 -77.13563 38542 ft 508 kts 33°
2026-05-04 18:04 54.22501 -77.07074 38543 ft 508 kts 33°
2026-05-04 18:05 54.31451 -76.97239 38553 ft 509 kts 33°
2026-05-04 18:05 54.37400 -76.90675 38552 ft 508 kts 33°
2026-05-04 18:06 54.46303 -76.80806 38563 ft 507 kts 33°
2026-05-04 18:06 54.52198 -76.74245 38562 ft 508 kts 33°
2026-05-04 18:07 54.58166 -76.67576 38563 ft 508 kts 34°
2026-05-04 18:07 54.64057 -76.60970 38563 ft 508 kts 34°
2026-05-04 18:08 54.69958 -76.54331 38570 ft 508 kts 34°
2026-05-04 18:08 54.75874 -76.47653 38564 ft 508 kts 34°
2026-05-04 18:09 54.87741 -76.34183 38561 ft 509 kts 34°
2026-05-04 18:10 54.93653 -76.27439 38562 ft 509 kts 34°
2026-05-04 18:10 54.99558 -76.20675 38562 ft 508 kts 34°
2026-05-04 18:11 55.05464 -76.13886 38609 ft 509 kts 34°
2026-05-04 18:11 55.11350 -76.07096 38618 ft 509 kts 34°
2026-05-04 18:12 55.17254 -76.00259 38618 ft 509 kts 34°
2026-05-04 18:12 55.23136 -75.93427 38618 ft 509 kts 34°
2026-05-04 18:13 55.29077 -75.86497 38625 ft 510 kts 35°
2026-05-04 18:14 55.37887 -75.76180 38608 ft 510 kts 35°
2026-05-04 18:14 55.43768 -75.69259 38608 ft 510 kts 35°
2026-05-04 18:15 55.55561 -75.55305 38617 ft 509 kts 35°
2026-05-04 18:16 55.61430 -75.48321 38616 ft 509 kts 35°
2026-05-04 18:16 55.67324 -75.41283 38617 ft 509 kts 35°
2026-05-04 18:17 55.76111 -75.30743 38625 ft 510 kts 35°
2026-05-04 18:18 55.84913 -75.20127 38628 ft 510 kts 36°
2026-05-04 18:18 55.90770 -75.13026 38627 ft 510 kts 36°
2026-05-04 18:19 55.99630 -75.02537 38634 ft 511 kts 29°
2026-05-04 18:19 56.06331 -74.98203 38628 ft 513 kts 14°
2026-05-04 18:20 56.13298 -74.95431 38624 ft 515 kts 12°
2026-05-04 18:20 56.20343 -74.92836 38629 ft 516 kts 12°
2026-05-04 18:21 56.27352 -74.90229 38630 ft 516 kts 12°
2026-05-04 18:21 56.34364 -74.87574 38633 ft 516 kts 13°
2026-05-04 18:22 56.41387 -74.84893 38634 ft 516 kts 13°
2026-05-04 18:22 56.48415 -74.82196 38632 ft 515 kts 13°
2026-05-04 18:23 56.55418 -74.79495 38637 ft 515 kts 13°
2026-05-04 18:23 56.62452 -74.76778 38663 ft 516 kts 13°
2026-05-04 18:24 56.69458 -74.74063 38667 ft 516 kts 13°
2026-05-04 18:24 56.76478 -74.71332 38664 ft 517 kts 13°
2026-05-04 18:25 56.83504 -74.68587 38662 ft 517 kts 13°
2026-05-04 18:25 56.90541 -74.65827 38662 ft 517 kts 13°
2026-05-04 18:26 56.97567 -74.63060 38665 ft 516 kts 13°
2026-05-04 18:26 57.04610 -74.60276 38665 ft 516 kts 13°
2026-05-04 18:27 57.11601 -74.57503 38675 ft 517 kts 13°
2026-05-04 18:27 57.18620 -74.54706 38674 ft 517 kts 13°
2026-05-04 18:28 57.25686 -74.51878 38674 ft 517 kts 13°
2026-05-04 18:28 57.32699 -74.49063 38673 ft 517 kts 13°
2026-05-04 18:29 57.39719 -74.46235 38680 ft 517 kts 13°
2026-05-04 18:29 57.46745 -74.43395 38683 ft 518 kts 13°
2026-05-04 18:30 57.57299 -74.39104 38692 ft 518 kts 13°
2026-05-04 18:31 57.64390 -74.36205 38692 ft 518 kts 13°
2026-05-04 18:31 57.71401 -74.33327 38691 ft 518 kts 13°
2026-05-04 18:32 57.78440 -74.30431 38701 ft 518 kts 13°
2026-05-04 18:32 57.85497 -74.27511 38702 ft 519 kts 14°
2026-05-04 18:33 57.92543 -74.24583 38711 ft 519 kts 14°
2026-05-04 18:33 57.99562 -74.21657 38711 ft 519 kts 14°
2026-05-04 18:34 58.06625 -74.18703 38712 ft 519 kts 14°
2026-05-04 18:34 58.13691 -74.15733 38721 ft 519 kts 14°
2026-05-04 18:35 58.20702 -74.12774 38720 ft 519 kts 14°
2026-05-04 18:35 58.27755 -74.09784 38729 ft 519 kts 14°
2026-05-04 18:36 58.34793 -74.06794 38731 ft 518 kts 14°
2026-05-04 18:36 58.41832 -74.03784 38738 ft 519 kts 14°
2026-05-04 18:37 58.48883 -74.00757 38739 ft 519 kts 14°
2026-05-04 18:37 58.55939 -73.97720 38739 ft 519 kts 14°
2026-05-04 18:38 58.62984 -73.94674 38749 ft 520 kts 14°
2026-05-04 18:38 58.70036 -73.91612 38748 ft 520 kts 14°
2026-05-04 18:39 58.77094 -73.88531 38754 ft 521 kts 14°
2026-05-04 18:39 58.84165 -73.85435 38757 ft 521 kts 14°
2026-05-04 18:40 58.91216 -73.82335 38757 ft 521 kts 14°
2026-05-04 18:40 58.98286 -73.79212 38763 ft 522 kts 14°
2026-05-04 18:41 59.05414 -73.76056 38762 ft 522 kts 14°
2026-05-04 18:41 59.12457 -73.72916 38795 ft 523 kts 14°
2026-05-04 18:42 59.19548 -73.69745 38805 ft 523 kts 14°
2026-05-04 18:42 59.26669 -73.66549 38823 ft 523 kts 14°
2026-05-04 18:43 59.33722 -73.63362 38823 ft 523 kts 15°
2026-05-04 18:43 59.40811 -73.60150 38847 ft 523 kts 15°
2026-05-04 18:44 59.46745 -73.57454 38850 ft 523 kts 15°
2026-05-04 18:44 59.53800 -73.54237 38850 ft 523 kts 15°
2026-05-04 18:45 59.60918 -73.50975 38855 ft 523 kts 15°
2026-05-04 18:45 59.67959 -73.47731 38860 ft 523 kts 15°
2026-05-04 18:46 59.75073 -73.44438 38862 ft 523 kts 15°
2026-05-04 18:46 59.82141 -73.41154 38859 ft 523 kts 15°
2026-05-04 18:47 59.89222 -73.37851 38871 ft 523 kts 15°
2026-05-04 18:47 59.96301 -73.34533 38867 ft 523 kts 15°
2026-05-04 18:48 60.03423 -73.31182 38871 ft 524 kts 15°
2026-05-04 18:48 60.10519 -73.27826 38872 ft 524 kts 15°
2026-05-04 18:49 60.17592 -73.24464 38868 ft 524 kts 15°
2026-05-04 18:49 60.24690 -73.21081 38868 ft 524 kts 15°
2026-05-04 18:50 60.31767 -73.17696 38867 ft 524 kts 15°
2026-05-04 18:50 60.38892 -73.14265 38872 ft 524 kts 15°
2026-05-04 18:51 60.45956 -73.10850 38878 ft 525 kts 15°
2026-05-04 18:51 60.53072 -73.07392 38879 ft 525 kts 15°
2026-05-04 18:52 60.60192 -73.03921 38879 ft 525 kts 15°
2026-05-04 18:52 60.67275 -73.00450 38886 ft 525 kts 15°
2026-05-04 18:53 60.74368 -72.96957 38889 ft 525 kts 15°
2026-05-04 18:53 60.81493 -72.93434 38888 ft 525 kts 15°
2026-05-04 18:54 60.88588 -72.89910 38896 ft 526 kts 15°
2026-05-04 18:54 60.95707 -72.86355 38896 ft 525 kts 15°
2026-05-04 18:55 61.02767 -72.82813 38897 ft 525 kts 15°
2026-05-04 18:55 61.09503 -72.77262 38907 ft 518 kts 34°
2026-05-04 18:55 61.12447 -72.72998 38906 ft 514 kts 41°
2026-05-04 18:56 61.18025 -72.63756 38905 ft 514 kts 43°
2026-05-04 18:56 61.23543 -72.54230 38912 ft 515 kts 43°
2026-05-04 18:57 61.29032 -72.44721 38915 ft 515 kts 43°
2026-05-04 18:57 61.34549 -72.35181 38915 ft 515 kts 43°
2026-05-04 18:58 61.40043 -72.25654 38932 ft 515 kts 43°
2026-05-04 18:58 61.45526 -72.16102 38932 ft 515 kts 43°
2026-05-04 18:59 61.51009 -72.06503 38927 ft 515 kts 43°
2026-05-04 18:59 61.56521 -71.96814 38931 ft 515 kts 44°
2026-05-04 19:00 61.61966 -71.87184 38922 ft 515 kts 44°
2026-05-04 19:00 61.67462 -71.77417 38925 ft 515 kts 44°
2026-05-04 19:01 61.72923 -71.67675 38915 ft 515 kts 44°
2026-05-04 19:01 61.78396 -71.57860 38914 ft 515 kts 44°
2026-05-04 19:02 61.83867 -71.48002 38933 ft 515 kts 44°
2026-05-04 19:02 61.89275 -71.38210 38938 ft 515 kts 44°
2026-05-04 19:03 61.94742 -71.28262 38934 ft 515 kts 44°
2026-05-04 19:03 62.00176 -71.18329 38930 ft 515 kts 44°
2026-05-04 19:04 62.05611 -71.08350 38941 ft 516 kts 44°
2026-05-04 19:04 62.11001 -70.98398 38945 ft 516 kts 44°
2026-05-04 19:05 62.16447 -70.88287 38952 ft 516 kts 44°
2026-05-04 19:05 62.21837 -70.78234 38961 ft 516 kts 44°
2026-05-04 19:06 62.27259 -70.68089 38962 ft 516 kts 44°
2026-05-04 19:06 62.32666 -70.57900 38978 ft 516 kts 45°
2026-05-04 19:07 62.38033 -70.47740 38981 ft 516 kts 45°
2026-05-04 19:07 62.43442 -70.37444 38992 ft 516 kts 45°
2026-05-04 19:08 62.48794 -70.27204 38994 ft 516 kts 45°
2026-05-04 19:08 62.54187 -70.16853 38998 ft 516 kts 45°
2026-05-04 19:09 62.59533 -70.06548 39007 ft 516 kts 45°
2026-05-04 19:09 62.64890 -69.96144 39004 ft 516 kts 45°
2026-05-04 19:10 62.70233 -69.85724 39006 ft 516 kts 45°
2026-05-04 19:10 62.75579 -69.75242 39005 ft 517 kts 45°
2026-05-04 19:11 62.80922 -69.64723 39024 ft 517 kts 45°
2026-05-04 19:11 62.86238 -69.54193 39002 ft 518 kts 45°
2026-05-04 19:12 62.94269 -69.38171 39005 ft 518 kts 45°
2026-05-04 19:13 62.99570 -69.27549 39008 ft 518 kts 45°
2026-05-04 19:13 63.04908 -69.16789 39028 ft 519 kts 46°
2026-05-04 19:14 63.10226 -69.06017 39028 ft 519 kts 46°
2026-05-04 19:14 63.15534 -68.95197 39036 ft 519 kts 46°
2026-05-04 19:15 63.20829 -68.84355 39045 ft 519 kts 46°
2026-05-04 19:15 63.26117 -68.73470 39053 ft 519 kts 46°
2026-05-04 19:16 63.31382 -68.62572 39064 ft 519 kts 46°
2026-05-04 19:16 63.36655 -68.51588 39074 ft 519 kts 46°
2026-05-04 19:17 63.41603 -68.41238 39079 ft 519 kts 46°
2026-05-04 19:17 63.46901 -68.30111 39082 ft 519 kts 46°
2026-05-04 19:18 63.52158 -68.18996 39082 ft 519 kts 46°
2026-05-04 19:18 63.57372 -68.07914 39089 ft 519 kts 46°
2026-05-04 19:19 63.62599 -67.96765 39093 ft 518 kts 46°
2026-05-04 19:19 63.67826 -67.85542 39100 ft 519 kts 46°
2026-05-04 19:20 63.73041 -67.74282 39093 ft 519 kts 46°
2026-05-04 19:20 63.78221 -67.63043 39099 ft 519 kts 47°
2026-05-04 19:21 63.83446 -67.51634 39100 ft 519 kts 47°
2026-05-04 19:21 63.88600 -67.40324 39109 ft 520 kts 47°
2026-05-04 19:22 63.93810 -67.28831 39109 ft 520 kts 47°
2026-05-04 19:22 63.98978 -67.17370 39111 ft 519 kts 47°
2026-05-04 19:23 64.04146 -67.05847 39110 ft 520 kts 47°
2026-05-04 19:23 64.09317 -66.94244 39110 ft 520 kts 47°
2026-05-04 19:24 64.14459 -66.82660 39119 ft 521 kts 47°
2026-05-04 19:24 64.19621 -66.70963 39119 ft 520 kts 47°
2026-05-04 19:25 64.24736 -66.59303 39119 ft 520 kts 47°
2026-05-04 19:25 64.29881 -66.47502 39128 ft 521 kts 47°
2026-05-04 19:26 64.34993 -66.35714 39126 ft 521 kts 47°
2026-05-04 19:26 64.40116 -66.23835 39130 ft 521 kts 48°
2026-05-04 19:27 64.45234 -66.11905 39133 ft 521 kts 48°
2026-05-04 19:27 64.50310 -66.00015 39142 ft 521 kts 48°
2026-05-04 19:28 64.55409 -65.88002 39150 ft 522 kts 48°
2026-05-04 19:28 64.60490 -65.75944 39144 ft 522 kts 48°
2026-05-04 19:29 64.65563 -65.63843 39168 ft 522 kts 48°
2026-05-04 19:29 64.70614 -65.51730 39184 ft 521 kts 48°
2026-05-04 19:30 64.75654 -65.39578 39185 ft 521 kts 48°
2026-05-04 19:30 64.80705 -65.27329 39185 ft 522 kts 48°
2026-05-04 19:31 64.85751 -65.15015 39194 ft 522 kts 48°
2026-05-04 19:31 64.90779 -65.02680 39195 ft 522 kts 48°
2026-05-04 19:32 64.95783 -64.90341 39199 ft 523 kts 48°
2026-05-04 19:32 64.99966 -64.79961 39210 ft 523 kts 48°
2026-05-04 19:33 65.04985 -64.67439 39213 ft 523 kts 48°
2026-05-04 19:33 65.09968 -64.54932 39204 ft 522 kts 48°
2026-05-04 19:34 65.14935 -64.42398 39214 ft 522 kts 48°
2026-05-04 19:34 65.19900 -64.29796 39221 ft 523 kts 48°
2026-05-04 19:35 65.24866 -64.17119 39219 ft 523 kts 48°
2026-05-04 19:35 65.29771 -64.04311 39216 ft 522 kts 53°
2026-05-04 19:36 65.33480 -63.89562 39201 ft 517 kts 66°
2026-05-04 19:36 65.36483 -63.73950 39182 ft 517 kts 68°
2026-05-04 19:37 65.39397 -63.58092 39191 ft 518 kts 69°
2026-05-04 19:37 65.42281 -63.42332 39298 ft 518 kts 69°
2026-05-04 19:38 65.45175 -63.26496 39303 ft 519 kts 69°
2026-05-04 19:38 65.48064 -63.10601 39310 ft 519 kts 69°
2026-05-04 19:39 65.50950 -62.94608 39312 ft 519 kts 69°
2026-05-04 19:39 65.53803 -62.78653 39318 ft 519 kts 69°
2026-05-04 19:40 65.56648 -62.62613 39322 ft 520 kts 69°
2026-05-04 19:40 65.59482 -62.46496 39330 ft 520 kts 69°
2026-05-04 19:41 65.62280 -62.30473 39333 ft 520 kts 69°
2026-05-04 19:41 65.65094 -62.14208 39335 ft 521 kts 69°
2026-05-04 19:42 65.67862 -61.98078 39328 ft 520 kts 69°
2026-05-04 19:42 65.70636 -61.81792 39342 ft 521 kts 69°
2026-05-04 19:43 65.73382 -61.65516 39342 ft 521 kts 69°
2026-05-04 19:43 65.76098 -61.49290 39334 ft 521 kts 69°
2026-05-04 19:44 65.78819 -61.32892 39333 ft 521 kts 70°
2026-05-04 19:44 65.81517 -61.16488 39329 ft 521 kts 70°
2026-05-04 19:45 65.84201 -61.00036 39333 ft 522 kts 70°
2026-05-04 19:45 65.86862 -60.83575 39333 ft 523 kts 70°
2026-05-04 19:46 65.89522 -60.66972 39326 ft 523 kts 70°
2026-05-04 19:46 65.92155 -60.50412 39322 ft 524 kts 70°
2026-05-04 19:47 65.94771 -60.33804 39320 ft 524 kts 70°
2026-05-04 19:47 65.97373 -60.17119 39321 ft 524 kts 70°
2026-05-04 19:48 65.99954 -60.00433 39320 ft 524 kts 70°
2026-05-04 19:48 66.02408 -59.83463 39314 ft 524 kts 73°
2026-05-04 19:49 66.04636 -59.66474 39312 ft 524 kts 73°
2026-05-04 19:49 66.06869 -59.49362 39311 ft 524 kts 73°
2026-05-04 19:50 66.09116 -59.32287 39305 ft 525 kts 73°
2026-05-04 19:50 66.11355 -59.15229 39302 ft 526 kts 73°
2026-05-04 19:51 66.13601 -58.97947 39302 ft 526 kts 73°
2026-05-04 19:51 66.15811 -58.80779 39295 ft 526 kts 73°
2026-05-04 19:52 66.18012 -58.63448 39293 ft 527 kts 73°
2026-05-04 19:52 66.20184 -58.46182 39292 ft 527 kts 73°
2026-05-04 19:53 66.22342 -58.28830 39282 ft 527 kts 73°
2026-05-04 19:53 66.24487 -58.11394 39289 ft 527 kts 73°
2026-05-04 19:54 66.26603 -57.94028 39280 ft 527 kts 73°
2026-05-04 19:54 66.28699 -57.76636 39269 ft 527 kts 73°
2026-05-04 19:55 66.30783 -57.59128 39267 ft 527 kts 74°
2026-05-04 19:55 66.32845 -57.41665 39269 ft 527 kts 74°
2026-05-04 19:56 66.34897 -57.24056 39270 ft 527 kts 74°
2026-05-04 19:56 66.36923 -57.06435 39257 ft 528 kts 74°
2026-05-04 19:57 66.38925 -56.88858 39256 ft 529 kts 74°
2026-05-04 19:57 66.40915 -56.71178 39255 ft 529 kts 74°
2026-05-04 19:58 66.42877 -56.53539 39255 ft 529 kts 74°
2026-05-04 19:58 66.44828 -56.35805 39258 ft 529 kts 75°
2026-05-04 19:59 66.46749 -56.18138 39252 ft 528 kts 75°
2026-05-04 19:59 66.48664 -56.00288 39248 ft 528 kts 75°
2026-05-04 20:00 66.50541 -55.82527 39248 ft 529 kts 75°
2026-05-04 20:00 66.52402 -55.64766 39246 ft 528 kts 75°
2026-05-04 20:01 66.54252 -55.46862 39248 ft 529 kts 75°
2026-05-04 20:01 66.56083 -55.28974 39246 ft 529 kts 75°
2026-05-04 20:02 66.57896 -55.11035 39248 ft 530 kts 75°
2026-05-04 20:02 66.59690 -54.93026 39248 ft 530 kts 75°
2026-05-04 20:03 66.61453 -54.75055 39248 ft 530 kts 75°
2026-05-04 20:03 66.63206 -54.57002 39247 ft 531 kts 75°
2026-05-04 20:04 66.64929 -54.38997 39248 ft 531 kts 76°
2026-05-04 20:04 66.66647 -54.20847 39248 ft 531 kts 76°
2026-05-04 20:05 66.68336 -54.02769 39248 ft 532 kts 76°
2026-05-04 20:05 66.70010 -53.84497 39248 ft 532 kts 76°
2026-05-04 20:06 66.71650 -53.66388 39248 ft 532 kts 76°
2026-05-04 20:06 66.73281 -53.48122 39249 ft 532 kts 76°
2026-05-04 20:07 66.74884 -53.29891 39248 ft 533 kts 76°
2026-05-04 20:07 66.76480 -53.11494 39248 ft 532 kts 76°
2026-05-04 20:08 66.78046 -52.93261 39250 ft 532 kts 77°
2026-05-04 20:08 66.79591 -52.74918 39256 ft 532 kts 77°
2026-05-04 20:09 66.81114 -52.56540 39256 ft 533 kts 77°
2026-05-04 20:09 66.82617 -52.38091 39256 ft 533 kts 77°
2026-05-04 20:10 66.84102 -52.19688 39263 ft 533 kts 77°
2026-05-04 20:10 66.85582 -52.01118 39256 ft 533 kts 77°
2026-05-04 20:11 66.87014 -51.82667 39255 ft 533 kts 78°
2026-05-04 20:11 66.88425 -51.64240 39266 ft 533 kts 78°
2026-05-04 20:12 66.89832 -51.45605 39267 ft 534 kts 78°
2026-05-04 20:12 66.91202 -51.27137 39266 ft 534 kts 78°
2026-05-04 20:13 66.92562 -51.08520 39270 ft 534 kts 78°
2026-05-04 20:13 66.93894 -50.89947 39269 ft 534 kts 78°
2026-05-04 20:14 66.95217 -50.71191 39264 ft 535 kts 78°
2026-05-04 20:14 66.96511 -50.52503 39267 ft 535 kts 78°
2026-05-04 20:15 66.97779 -50.33841 39269 ft 535 kts 79°
2026-05-04 20:15 66.99032 -50.15038 39270 ft 535 kts 79°
2026-05-04 20:16 67.00250 -49.96359 39268 ft 535 kts 79°
2026-05-04 20:16 67.00969 -49.77441 39264 ft 536 kts 85°
2026-05-04 20:17 67.01371 -49.58332 39266 ft 536 kts 86°
2026-05-04 20:17 67.01815 -49.39377 39259 ft 536 kts 85°
2026-05-04 20:18 67.02312 -49.20287 39274 ft 536 kts 85°
2026-05-04 20:18 67.02808 -49.01255 39278 ft 536 kts 85°
2026-05-04 20:19 67.03280 -48.82251 39279 ft 536 kts 85°
2026-05-04 20:19 67.03730 -48.63157 39278 ft 537 kts 85°
2026-05-04 20:20 67.04153 -48.44133 39271 ft 536 kts 86°
2026-05-04 20:20 67.04553 -48.25010 39278 ft 537 kts 86°
2026-05-04 20:21 67.04930 -48.05889 39278 ft 537 kts 86°
2026-05-04 20:21 67.05453 -47.77273 39279 ft 537 kts 86°
2026-05-04 20:22 67.05723 -47.61319 39288 ft 537 kts 86°
2026-05-04 20:22 67.06023 -47.42228 39282 ft 537 kts 86°
2026-05-04 20:23 67.06304 -47.23054 39285 ft 537 kts 87°
2026-05-04 20:23 67.06560 -47.03877 39287 ft 537 kts 87°
2026-05-04 20:24 67.06793 -46.84753 39287 ft 537 kts 87°
2026-05-04 20:24 67.07002 -46.65650 39287 ft 537 kts 87°
2026-05-04 20:25 67.07189 -46.46557 39287 ft 537 kts 88°
2026-05-04 20:25 67.07354 -46.27410 39287 ft 537 kts 88°
2026-05-04 20:26 67.07496 -46.08130 39283 ft 537 kts 88°
2026-05-04 20:26 67.07616 -45.88955 39412 ft 539 kts 88°
2026-05-04 20:27 67.07666 -45.79469 39659 ft 538 kts 88°
2026-05-04 20:27 67.07711 -45.69777 39898 ft 537 kts 88°
2026-05-04 20:27 67.07749 -45.60207 40103 ft 537 kts 88°
2026-05-04 20:27 67.07781 -45.50834 40316 ft 537 kts 88°
2026-05-04 20:28 67.07809 -45.41108 40488 ft 537 kts 89°
2026-05-04 20:28 67.07831 -45.31567 40677 ft 537 kts 89°
2026-05-04 20:28 67.07847 -45.22027 40843 ft 537 kts 89°
2026-05-04 20:28 67.07857 -45.12413 41022 ft 537 kts 89°
2026-05-04 20:29 67.07862 -45.02793 41142 ft 538 kts 89°
2026-05-04 20:29 67.07861 -44.93225 41259 ft 539 kts 89°
2026-05-04 20:29 67.07842 -44.73983 41292 ft 539 kts 89°
2026-05-04 20:30 67.07798 -44.54814 41292 ft 539 kts 89°
2026-05-04 20:30 67.07732 -44.35538 41300 ft 540 kts 89°
2026-05-04 20:31 67.07643 -44.16268 41300 ft 540 kts 89°
2026-05-04 20:31 67.07531 -43.97048 41309 ft 540 kts 90°
2026-05-04 20:32 67.07395 -43.77815 41303 ft 540 kts 90°
2026-05-04 20:32 67.07236 -43.58622 41312 ft 540 kts 90°
2026-05-04 20:33 67.07054 -43.39330 41311 ft 540 kts 90°
2026-05-04 20:33 67.06848 -43.20049 41311 ft 540 kts 90°
2026-05-04 20:34 67.06620 -43.00842 41316 ft 540 kts 91°
2026-05-04 20:34 67.06368 -42.81595 41320 ft 539 kts 91°
2026-05-04 20:35 67.06094 -42.62454 41324 ft 539 kts 91°
2026-05-04 20:35 67.05798 -42.43314 41324 ft 539 kts 91°
2026-05-04 20:36 67.05477 -42.24088 41330 ft 539 kts 91°
2026-05-04 20:36 67.05135 -42.04992 41330 ft 539 kts 91°
2026-05-04 20:37 67.04768 -41.85802 41332 ft 539 kts 91°
2026-05-04 20:37 67.04377 -41.66583 41340 ft 539 kts 92°
2026-05-04 20:38 67.03969 -41.47526 41340 ft 538 kts 92°
2026-05-04 20:38 67.03538 -41.28361 41340 ft 538 kts 92°
2026-05-04 20:39 67.03077 -41.09271 41348 ft 538 kts 92°
2026-05-04 20:39 67.02595 -40.90180 41348 ft 538 kts 92°
2026-05-04 20:40 67.02088 -40.70960 41349 ft 538 kts 93°
2026-05-04 20:40 67.01567 -40.52050 41355 ft 538 kts 93°
2026-05-04 20:41 67.01017 -40.32932 41359 ft 538 kts 93°
2026-05-04 20:41 67.00442 -40.13768 41359 ft 538 kts 93°
2026-05-04 20:42 67.00217 -39.94747 41361 ft 536 kts 85°
2026-05-04 20:42 67.00718 -39.75806 41361 ft 535 kts 84°
2026-05-04 20:43 67.01294 -39.56796 41373 ft 535 kts 84°
2026-05-04 20:43 67.01846 -39.37836 41364 ft 535 kts 84°
2026-05-04 20:44 67.02378 -39.18763 41363 ft 535 kts 84°
2026-05-04 20:44 67.02862 -38.99752 41366 ft 536 kts 84°
2026-05-04 20:45 67.03333 -38.80764 41366 ft 536 kts 84°
2026-05-04 20:45 67.03777 -38.61682 41363 ft 536 kts 85°
2026-05-04 20:46 67.04207 -38.42738 41367 ft 536 kts 85°
2026-05-04 20:46 67.04594 -38.23598 41368 ft 536 kts 85°
2026-05-04 20:47 67.04959 -38.04562 41373 ft 536 kts 85°
2026-05-04 20:47 67.05307 -37.85550 41378 ft 536 kts 85°
2026-05-04 20:48 67.05637 -37.66518 41379 ft 536 kts 86°
2026-05-04 20:48 67.05946 -37.47372 41378 ft 536 kts 86°
2026-05-04 20:49 67.06260 -37.28270 41376 ft 537 kts 86°
2026-05-04 20:49 67.06510 -37.09249 41369 ft 537 kts 86°
2026-05-04 20:50 67.06736 -36.90052 41388 ft 536 kts 86°
2026-05-04 20:50 67.06946 -36.70984 41379 ft 536 kts 86°
2026-05-04 20:51 67.07140 -36.51822 41388 ft 537 kts 87°
2026-05-04 20:51 67.07311 -36.32673 41387 ft 537 kts 87°
2026-05-04 20:52 67.07458 -36.13632 41379 ft 537 kts 87°
2026-05-04 20:52 67.07584 -35.94522 41387 ft 537 kts 87°
2026-05-04 20:53 67.07685 -35.75371 41387 ft 537 kts 88°
2026-05-04 20:53 67.07764 -35.56205 41382 ft 537 kts 88°
2026-05-04 20:54 67.07819 -35.37048 41371 ft 537 kts 88°
2026-05-04 20:54 67.07852 -35.17851 41380 ft 537 kts 88°
2026-05-04 20:55 67.07862 -34.98645 41377 ft 538 kts 88°
2026-05-04 20:55 67.07849 -34.79502 41376 ft 538 kts 88°
2026-05-04 20:56 67.07813 -34.60387 41374 ft 538 kts 89°
2026-05-04 20:56 67.07754 -34.41250 41374 ft 537 kts 89°
2026-05-04 20:57 67.07672 -34.22082 41378 ft 537 kts 89°
2026-05-04 20:57 67.07567 -34.02928 41378 ft 537 kts 89°
2026-05-04 20:58 67.07441 -33.83793 41379 ft 538 kts 89°
2026-05-04 20:58 67.07289 -33.64536 41371 ft 537 kts 90°
2026-05-04 20:59 67.07113 -33.45419 41366 ft 538 kts 90°
2026-05-04 20:59 67.06916 -33.26246 41368 ft 538 kts 90°
2026-05-04 21:00 67.06696 -33.07070 41369 ft 538 kts 90°
2026-05-04 21:00 67.06453 -32.87875 41364 ft 537 kts 90°
2026-05-04 21:01 67.06187 -32.68733 41368 ft 538 kts 90°
2026-05-04 21:01 67.05898 -32.49594 41364 ft 538 kts 91°
2026-05-04 21:02 67.05587 -32.30548 41355 ft 537 kts 91°
2026-05-04 21:02 67.05252 -32.11370 41354 ft 537 kts 91°
2026-05-04 21:03 67.04894 -31.92248 41359 ft 537 kts 91°
2026-05-04 21:03 67.04514 -31.73164 41359 ft 537 kts 91°
2026-05-04 21:04 67.04110 -31.54013 41359 ft 537 kts 91°
2026-05-04 21:04 67.03685 -31.34990 41359 ft 537 kts 92°
2026-05-04 21:05 67.03237 -31.15910 41350 ft 537 kts 92°
2026-05-04 21:05 67.02768 -30.96928 41364 ft 537 kts 92°
2026-05-04 21:06 67.02272 -30.77830 41363 ft 536 kts 92°
2026-05-04 21:06 67.01756 -30.58820 41367 ft 537 kts 92°
2026-05-04 21:07 67.01213 -30.39637 41356 ft 537 kts 92°
2026-05-04 21:07 67.00653 -30.20700 41359 ft 537 kts 92°
2026-05-04 21:08 67.00065 -30.01580 41359 ft 536 kts 92°
2026-05-04 21:08 66.99369 -29.85784 41360 ft 537 kts 98°
2026-05-04 21:09 66.98009 -29.67116 41355 ft 537 kts 100°
2026-05-04 21:09 66.96593 -29.48319 41349 ft 537 kts 99°
2026-05-04 21:10 66.95258 -29.29624 41349 ft 537 kts 99°
2026-05-04 21:10 66.93937 -29.10839 41349 ft 537 kts 99°
2026-05-04 21:11 66.92605 -28.92160 41349 ft 537 kts 99°
2026-05-04 21:11 66.91241 -28.73406 41340 ft 537 kts 99°
2026-05-04 21:12 66.89858 -28.54764 41340 ft 537 kts 99°
2026-05-04 21:12 66.88451 -28.36111 41339 ft 537 kts 99°
2026-05-04 21:13 66.87018 -28.17427 41340 ft 537 kts 99°
2026-05-04 21:13 66.85569 -27.98842 41339 ft 537 kts 100°
2026-05-04 21:14 66.84096 -27.80249 41332 ft 537 kts 100°
2026-05-04 21:14 66.82593 -27.61582 41330 ft 537 kts 100°
2026-05-04 21:15 66.81082 -27.43106 41330 ft 537 kts 100°
2026-05-04 21:15 66.79545 -27.24602 41331 ft 537 kts 101°
2026-05-04 21:16 66.77980 -27.06033 41330 ft 537 kts 101°
2026-05-04 21:16 66.76401 -26.87587 41330 ft 537 kts 101°
2026-05-04 21:17 66.74801 -26.69169 41321 ft 537 kts 101°
2026-05-04 21:17 66.73174 -26.50712 41323 ft 537 kts 101°
2026-05-04 21:18 66.71530 -26.32338 41320 ft 538 kts 102°
2026-05-04 21:18 66.69856 -26.13886 41320 ft 538 kts 102°
2026-05-04 21:19 66.68156 -25.95409 41320 ft 538 kts 102°
2026-05-04 21:19 66.66444 -25.77068 41320 ft 538 kts 102°
2026-05-04 21:20 66.64713 -25.58773 41320 ft 538 kts 102°
2026-05-04 21:20 66.62963 -25.40529 41317 ft 538 kts 102°
2026-05-04 21:21 66.61178 -25.22172 41310 ft 538 kts 103°
2026-05-04 21:21 66.59381 -25.03924 41310 ft 537 kts 103°
2026-05-04 21:22 66.57566 -24.85744 41310 ft 537 kts 103°
2026-05-04 21:22 66.55726 -24.67547 41310 ft 537 kts 103°
2026-05-04 21:23 66.53866 -24.49395 41310 ft 538 kts 103°
2026-05-04 21:23 66.51978 -24.31196 41310 ft 538 kts 104°
2026-05-04 21:24 66.50071 -24.13043 41310 ft 539 kts 104°
2026-05-04 21:24 66.48139 -23.94887 41311 ft 539 kts 104°
2026-05-04 21:25 66.46200 -23.76886 41313 ft 539 kts 104°
2026-05-04 21:25 66.44228 -23.58802 41310 ft 539 kts 104°
2026-05-04 21:26 66.42244 -23.40820 41313 ft 538 kts 104°
2026-05-04 21:26 66.40230 -23.22792 41310 ft 538 kts 104°
2026-05-04 21:27 66.38195 -23.04784 41307 ft 537 kts 105°
2026-05-04 21:27 66.36144 -22.86854 41306 ft 538 kts 105°
2026-05-04 21:28 66.34080 -22.69005 41306 ft 538 kts 105°
2026-05-04 21:28 66.31996 -22.51203 41309 ft 538 kts 105°
2026-05-04 21:29 66.29868 -22.33224 41297 ft 539 kts 105°
2026-05-04 21:29 66.27734 -22.15406 41309 ft 540 kts 106°
2026-05-04 21:30 66.25571 -21.97542 41315 ft 540 kts 106°
2026-05-04 21:30 66.23387 -21.79707 41292 ft 540 kts 106°
2026-05-04 21:31 66.20085 -21.53109 41281 ft 540 kts 106°
2026-05-04 21:32 66.17851 -21.35355 41282 ft 540 kts 107°
2026-05-04 21:32 66.15602 -21.17679 41295 ft 539 kts 107°
2026-05-04 21:33 66.13331 -21.00015 41280 ft 538 kts 107°
2026-05-04 21:33 66.11055 -20.82498 41281 ft 538 kts 107°
2026-05-04 21:34 66.08744 -20.64895 41300 ft 538 kts 107°
2026-05-04 21:34 66.06430 -20.47457 41293 ft 538 kts 107°
2026-05-04 21:35 66.04084 -20.29961 41296 ft 538 kts 107°
2026-05-04 21:35 66.01718 -20.12493 41297 ft 539 kts 107°
2026-05-04 21:36 65.99315 -19.95031 41280 ft 540 kts 109°
2026-05-04 21:36 65.96377 -19.78017 41297 ft 540 kts 114°
2026-05-04 21:37 65.93215 -19.61374 41283 ft 541 kts 114°
2026-05-04 21:37 65.90106 -19.44667 41280 ft 540 kts 114°
2026-05-04 21:38 65.87015 -19.27780 41281 ft 540 kts 113°
2026-05-04 21:38 65.83957 -19.11097 41294 ft 540 kts 114°
2026-05-04 21:39 65.80876 -18.94443 41295 ft 540 kts 114°
2026-05-04 21:39 65.77778 -18.77855 41291 ft 540 kts 114°
2026-05-04 21:40 65.74656 -18.61283 41299 ft 540 kts 114°
2026-05-04 21:40 65.71519 -18.44765 41284 ft 539 kts 114°
2026-05-04 21:41 65.68347 -18.28203 41291 ft 539 kts 114°
2026-05-04 21:41 65.65183 -18.11810 41291 ft 538 kts 114°
2026-05-04 21:42 65.61989 -17.95394 41291 ft 538 kts 115°
2026-05-04 21:42 65.58796 -17.79112 41300 ft 538 kts 115°
2026-05-04 21:43 65.55570 -17.62791 41303 ft 538 kts 115°
2026-05-04 21:43 65.52333 -17.46544 41290 ft 539 kts 115°
2026-05-04 21:44 65.49053 -17.30207 41284 ft 539 kts 115°
2026-05-04 21:44 65.45777 -17.14023 41277 ft 540 kts 115°
2026-05-04 21:45 65.42459 -16.97754 41275 ft 540 kts 115°
2026-05-04 21:45 65.39146 -16.81636 41265 ft 540 kts 116°
2026-05-04 21:46 65.35816 -16.65562 41257 ft 540 kts 116°
2026-05-04 21:46 65.32454 -16.49452 41253 ft 540 kts 116°
2026-05-04 21:47 65.29075 -16.33387 41244 ft 540 kts 116°
2026-05-04 21:47 65.25686 -16.17398 41231 ft 540 kts 116°
2026-05-04 21:48 65.22299 -16.01536 41222 ft 540 kts 116°
2026-05-04 21:48 65.18871 -15.85604 41220 ft 539 kts 117°
2026-05-04 21:49 65.15421 -15.69686 41212 ft 539 kts 117°
2026-05-04 21:49 65.11964 -15.53860 41202 ft 539 kts 117°
2026-05-04 21:50 65.08506 -15.38141 41202 ft 539 kts 117°
2026-05-04 21:50 65.05034 -15.22473 41192 ft 539 kts 117°
2026-05-04 21:51 65.01695 -15.06612 41194 ft 538 kts 109°
2026-05-04 21:51 65.00213 -14.89404 41197 ft 531 kts 88°
2026-05-04 21:52 65.00336 -14.72026 41190 ft 530 kts 85°
2026-05-04 21:52 65.00651 -14.54531 41184 ft 531 kts 85°
2026-05-04 21:53 65.00925 -14.37182 41183 ft 531 kts 85°
2026-05-04 21:53 65.01146 -14.19700 41183 ft 531 kts 86°
2026-05-04 21:54 65.01332 -14.02316 41183 ft 531 kts 86°
2026-05-04 21:54 65.01498 -13.84857 41183 ft 530 kts 86°
2026-05-04 21:55 65.01643 -13.67411 41184 ft 529 kts 86°
2026-05-04 21:55 65.01769 -13.50059 41183 ft 529 kts 86°
2026-05-04 21:56 65.01875 -13.32688 41184 ft 529 kts 86°
2026-05-04 21:56 65.01961 -13.15263 41183 ft 530 kts 87°
2026-05-04 21:57 65.02027 -12.97763 41183 ft 529 kts 87°
2026-05-04 21:57 65.02072 -12.80418 41174 ft 529 kts 87°
2026-05-04 21:58 65.02098 -12.63003 41175 ft 529 kts 88°
2026-05-04 21:58 65.02104 -12.48532 41174 ft 528 kts 88°
2026-05-04 21:59 65.02088 -12.28244 41174 ft 528 kts 88°
2026-05-04 21:59 65.02060 -12.13851 41174 ft 528 kts 88°
2026-05-04 22:00 65.01997 -11.93605 41165 ft 528 kts 88°
2026-05-04 22:00 65.01922 -11.76235 41165 ft 527 kts 88°
2026-05-04 22:01 65.01826 -11.58928 41165 ft 527 kts 89°
2026-05-04 22:01 65.01731 -11.44469 41167 ft 527 kts 89°
2026-05-04 22:02 65.01599 -11.27127 41156 ft 527 kts 89°
2026-05-04 22:02 65.01446 -11.09784 41156 ft 527 kts 89°
2026-05-04 22:03 65.01274 -10.92421 41156 ft 527 kts 89°
2026-05-04 22:03 65.01081 -10.75094 41146 ft 527 kts 89°
2026-05-04 22:04 65.00868 -10.57774 41146 ft 527 kts 90°
2026-05-04 22:04 65.00636 -10.40477 41139 ft 528 kts 90°
2026-05-04 22:05 65.00384 -10.23182 41138 ft 528 kts 90°
2026-05-04 22:05 64.99900 -10.05848 41134 ft 529 kts 98°
2026-05-04 22:05 64.98998 -9.97430 41129 ft 530 kts 109°
2026-05-04 22:06 64.97520 -9.89489 41134 ft 530 kts 117°
2026-05-04 22:06 64.93966 -9.74249 41127 ft 532 kts 120°
2026-05-04 22:07 64.90234 -9.59080 41121 ft 533 kts 120°
2026-05-04 22:07 64.86542 -9.44079 41106 ft 533 kts 120°
2026-05-04 22:08 64.82830 -9.28959 41107 ft 532 kts 120°
2026-05-04 22:08 64.79130 -9.13939 41103 ft 532 kts 120°
2026-05-04 22:09 64.75435 -8.99039 41106 ft 532 kts 120°
2026-05-04 22:09 64.71676 -8.83993 41100 ft 532 kts 120°
2026-05-04 22:10 64.67946 -8.69167 41089 ft 533 kts 121°
2026-05-04 22:10 64.64169 -8.54256 41083 ft 533 kts 121°
2026-05-04 22:11 64.60383 -8.39407 41072 ft 533 kts 121°
2026-05-04 22:11 64.56576 -8.24578 41074 ft 534 kts 121°
2026-05-04 22:12 64.52752 -8.09783 41072 ft 534 kts 121°
2026-05-04 22:12 64.48929 -7.95089 41064 ft 534 kts 122°
2026-05-04 22:13 64.45076 -7.80378 41064 ft 534 kts 122°
2026-05-04 22:13 64.41211 -7.65715 41063 ft 534 kts 122°
2026-05-04 22:14 64.37557 -7.51945 41054 ft 534 kts 122°
2026-05-04 22:14 64.33646 -7.37299 41055 ft 534 kts 122°
2026-05-04 22:15 64.29742 -7.22755 41054 ft 533 kts 122°
2026-05-04 22:15 64.25829 -7.08293 41046 ft 533 kts 122°
2026-05-04 22:16 64.21910 -6.93911 41044 ft 533 kts 122°
2026-05-04 22:16 64.17958 -6.79495 41043 ft 532 kts 123°
2026-05-04 22:17 64.13993 -6.65120 41044 ft 532 kts 123°
2026-05-04 22:17 64.10021 -6.50813 41035 ft 532 kts 123°
2026-05-04 22:18 64.06052 -6.36606 41040 ft 532 kts 123°
2026-05-04 22:18 64.02036 -6.22319 41040 ft 532 kts 123°
2026-05-04 22:19 63.98045 -6.08216 41033 ft 533 kts 124°
2026-05-04 22:19 63.94020 -5.94080 41033 ft 533 kts 124°
2026-05-04 22:20 63.89951 -5.79879 41041 ft 533 kts 124°
2026-05-04 22:20 63.85896 -5.65814 41033 ft 533 kts 124°
2026-05-04 22:21 63.81833 -5.51808 41029 ft 533 kts 124°
2026-05-04 22:21 63.77758 -5.37848 41027 ft 533 kts 124°
2026-05-04 22:22 63.73662 -5.23905 41023 ft 534 kts 124°
2026-05-04 22:22 63.69533 -5.09937 41027 ft 534 kts 125°
2026-05-04 22:23 63.65411 -4.96078 41030 ft 534 kts 125°
2026-05-04 22:23 63.61250 -4.82170 41030 ft 535 kts 125°
2026-05-04 22:24 63.57096 -4.68374 41018 ft 535 kts 125°
2026-05-04 22:24 63.52893 -4.54500 41018 ft 534 kts 125°
2026-05-04 22:25 63.48707 -4.40765 41018 ft 535 kts 126°
2026-05-04 22:25 63.44504 -4.27057 41018 ft 535 kts 126°
2026-05-04 22:26 63.40297 -4.13420 41016 ft 535 kts 126°
2026-05-04 22:26 63.36055 -3.99751 41019 ft 535 kts 126°
2026-05-04 22:27 63.31817 -3.86179 41020 ft 535 kts 126°
2026-05-04 22:27 63.27547 -3.72582 41017 ft 535 kts 126°
2026-05-04 22:28 63.23262 -3.59023 41010 ft 536 kts 126°
2026-05-04 22:28 63.18966 -3.45510 41009 ft 536 kts 127°
2026-05-04 22:29 63.14680 -3.32106 41007 ft 536 kts 127°
2026-05-04 22:29 63.10346 -3.18632 41005 ft 536 kts 127°
2026-05-04 22:30 63.06011 -3.05234 41010 ft 536 kts 127°
2026-05-04 22:30 63.01653 -2.91846 41000 ft 537 kts 127°
2026-05-04 22:31 62.97306 -2.78568 40978 ft 537 kts 127°
2026-05-04 22:31 62.92915 -2.65237 40952 ft 537 kts 127°
2026-05-04 22:32 62.88541 -2.52031 40953 ft 538 kts 128°
2026-05-04 22:32 62.84135 -2.38808 40952 ft 538 kts 128°
2026-05-04 22:33 62.79716 -2.25622 40953 ft 538 kts 128°
2026-05-04 22:33 62.75250 -2.12373 40952 ft 539 kts 128°
2026-05-04 22:34 62.70803 -1.99255 40953 ft 539 kts 128°
2026-05-04 22:34 62.66335 -1.86152 40945 ft 540 kts 128°
2026-05-04 22:35 62.61860 -1.73103 40950 ft 540 kts 128°
2026-05-04 22:35 62.57338 -1.59993 40952 ft 540 kts 129°
2026-05-04 22:36 62.52858 -1.47078 40954 ft 540 kts 129°
2026-05-04 22:36 62.48315 -1.34058 40952 ft 540 kts 129°
2026-05-04 22:37 62.43794 -1.21173 40954 ft 540 kts 129°
2026-05-04 22:37 62.39243 -1.08241 40953 ft 540 kts 128°
2026-05-04 22:38 62.34682 -0.95356 40952 ft 539 kts 129°
2026-05-04 22:38 62.30118 -0.82584 40953 ft 539 kts 129°
2026-05-04 22:39 62.25576 -0.69803 40952 ft 539 kts 129°
2026-05-04 22:39 62.20992 -0.57182 40957 ft 539 kts 130°
2026-05-04 22:40 62.16354 -0.44478 40963 ft 538 kts 130°
2026-05-04 22:40 62.11758 -0.31902 40962 ft 538 kts 130°
2026-05-04 22:41 62.07150 -0.19344 40963 ft 538 kts 130°
2026-05-04 22:41 62.02603 -0.06700 40962 ft 539 kts 124°
2026-05-04 22:42 61.99501 0.07831 40963 ft 541 kts 103°
2026-05-04 22:42 61.98074 0.23516 40961 ft 543 kts 99°
2026-05-04 22:43 61.96922 0.39312 40961 ft 544 kts 98°
2026-05-04 22:43 61.95721 0.55264 40962 ft 543 kts 99°
2026-05-04 22:44 61.94458 0.71058 40962 ft 544 kts 99°
2026-05-04 22:44 61.93166 0.86809 40962 ft 544 kts 100°
2026-05-04 22:45 61.91853 1.02682 40962 ft 543 kts 100°
2026-05-04 22:45 61.89884 1.26279 40962 ft 542 kts 100°
2026-05-04 22:46 61.88544 1.41978 40962 ft 542 kts 100°
2026-05-04 22:46 61.87175 1.57714 40962 ft 543 kts 100°
2026-05-04 22:47 61.85788 1.73414 40962 ft 543 kts 100°
2026-05-04 22:47 61.84380 1.89048 40945 ft 543 kts 101°
2026-05-04 22:48 61.82937 2.04815 40943 ft 543 kts 101°
2026-05-04 22:48 61.81502 2.20440 40943 ft 543 kts 101°
2026-05-04 22:49 61.80038 2.36032 40945 ft 543 kts 101°
2026-05-04 22:49 61.78576 2.51658 40934 ft 543 kts 101°
2026-05-04 22:50 61.77090 2.67329 40934 ft 542 kts 101°
2026-05-04 22:50 61.75577 2.82981 40935 ft 542 kts 102°
2026-05-04 22:51 61.74052 2.98508 40934 ft 541 kts 102°
2026-05-04 22:51 61.72508 3.13984 40934 ft 541 kts 102°
2026-05-04 22:52 61.70956 3.29449 40935 ft 541 kts 102°
2026-05-04 22:52 61.69648 3.42334 40934 ft 540 kts 102°
2026-05-04 22:53 61.68048 3.57875 40934 ft 539 kts 103°
2026-05-04 22:53 61.66451 3.73227 40941 ft 539 kts 103°
2026-05-04 22:54 61.64829 3.88644 40941 ft 539 kts 103°
2026-05-04 22:54 61.63200 4.03940 40944 ft 539 kts 103°
2026-05-04 22:55 61.61560 4.19166 40936 ft 539 kts 103°
2026-05-04 22:55 61.59890 4.34484 40934 ft 539 kts 103°
2026-05-04 22:56 61.58201 4.49778 40935 ft 539 kts 104°
2026-05-04 22:56 61.56498 4.65070 40934 ft 539 kts 104°
2026-05-04 22:57 61.54768 4.80434 40934 ft 539 kts 104°
2026-05-04 22:57 61.53033 4.95655 40934 ft 539 kts 105°
2026-05-04 22:58 61.51253 5.10925 40934 ft 539 kts 105°
2026-05-04 22:58 61.49466 5.26144 40935 ft 539 kts 105°
2026-05-04 22:59 61.47677 5.41313 40923 ft 539 kts 105°
2026-05-04 22:59 61.45868 5.56529 40907 ft 539 kts 105°
2026-05-04 23:00 61.44050 5.71664 40891 ft 538 kts 105°
2026-05-04 23:00 61.42217 5.86763 40890 ft 538 kts 106°
2026-05-04 23:01 61.40367 6.01837 40884 ft 537 kts 106°
2026-05-04 23:01 61.38495 6.17008 40891 ft 538 kts 105°
2026-05-04 23:02 61.36633 6.32054 40882 ft 539 kts 106°
2026-05-04 23:02 61.34727 6.47192 40864 ft 538 kts 106°
2026-05-04 23:03 61.32805 6.62252 40857 ft 539 kts 106°
2026-05-04 23:03 61.30859 6.77327 40853 ft 539 kts 107°
2026-05-04 23:04 61.28890 6.92435 40841 ft 540 kts 107°
2026-05-04 23:04 61.26914 7.07454 40833 ft 541 kts 107°
2026-05-04 23:05 61.24920 7.22477 40833 ft 541 kts 107°
2026-05-04 23:05 61.22893 7.37597 40826 ft 541 kts 107°
2026-05-04 23:06 61.20863 7.52589 40831 ft 541 kts 107°
2026-05-04 23:06 61.18816 7.67525 40831 ft 542 kts 108°
2026-05-04 23:07 61.16824 7.82592 40832 ft 543 kts 105°
2026-05-04 23:07 61.15079 7.97799 40832 ft 543 kts 105°
2026-05-04 23:08 61.13334 8.13013 40830 ft 543 kts 105°
2026-05-04 23:08 61.11538 8.28122 40833 ft 543 kts 105°
2026-05-04 23:09 61.09692 8.43323 40832 ft 543 kts 106°
2026-05-04 23:09 61.07840 8.58382 40832 ft 542 kts 106°
2026-05-04 23:10 61.05974 8.73422 40829 ft 542 kts 106°
2026-05-04 23:10 61.04093 8.88436 40833 ft 542 kts 106°
2026-05-04 23:11 61.02192 9.03463 40826 ft 542 kts 107°
2026-05-04 23:11 61.00270 9.18503 40803 ft 541 kts 107°
2026-05-04 23:12 60.98341 9.33444 40795 ft 542 kts 107°
2026-05-04 23:12 60.96391 9.48408 40794 ft 541 kts 107°
2026-05-04 23:13 60.94422 9.63378 40785 ft 540 kts 107°
2026-05-04 23:13 60.92442 9.78282 40785 ft 540 kts 107°
2026-05-04 23:14 60.90458 9.93068 40786 ft 540 kts 107°
2026-05-04 23:14 60.88436 10.08006 40771 ft 540 kts 108°
2026-05-04 23:15 60.86420 10.22752 40767 ft 539 kts 108°
2026-05-04 23:15 60.84374 10.37589 40775 ft 539 kts 108°
2026-05-04 23:16 60.82322 10.52320 40776 ft 539 kts 108°
2026-05-04 23:16 60.80250 10.67071 40775 ft 538 kts 108°
2026-05-04 23:17 60.78170 10.81744 40778 ft 538 kts 108°
2026-05-04 23:17 60.76060 10.96496 40775 ft 538 kts 109°
2026-05-04 23:18 60.73946 11.11141 40771 ft 538 kts 109°
2026-05-04 23:18 60.71818 11.25756 40745 ft 538 kts 109°
2026-05-04 23:19 60.69663 11.40425 40751 ft 537 kts 109°
2026-05-04 23:19 60.67514 11.54927 40748 ft 537 kts 109°
2026-05-04 23:20 60.65335 11.69504 40749 ft 538 kts 109°
2026-05-04 23:20 60.63140 11.84067 40736 ft 537 kts 109°
2026-05-04 23:21 60.60939 11.98538 40734 ft 537 kts 109°
2026-05-04 23:21 60.58710 12.13098 40737 ft 537 kts 110°
2026-05-04 23:22 60.56472 12.27551 40742 ft 536 kts 110°
2026-05-04 23:22 60.54232 12.41917 40733 ft 536 kts 110°
2026-05-04 23:23 60.51970 12.56314 40736 ft 536 kts 110°
2026-05-04 23:23 60.49792 12.70857 40740 ft 537 kts 107°
2026-05-04 23:24 60.47825 12.85365 40738 ft 537 kts 108°
2026-05-04 23:24 60.45798 12.99953 40520 ft 536 kts 108°
2026-05-04 23:25 60.44781 13.07189 40267 ft 536 kts 108°
2026-05-04 23:25 60.43755 13.14419 40016 ft 536 kts 108°
2026-05-04 23:25 60.42717 13.21706 39767 ft 536 kts 108°
2026-05-04 23:25 60.41672 13.29017 39519 ft 537 kts 109°
2026-05-04 23:26 60.40639 13.36187 39266 ft 537 kts 108°
2026-05-04 23:26 60.39619 13.43264 39010 ft 538 kts 109°
2026-05-04 23:26 60.38560 13.50565 38775 ft 539 kts 109°
2026-05-04 23:26 60.37502 13.57822 38531 ft 539 kts 109°
2026-05-04 23:27 60.36454 13.65080 38275 ft 538 kts 109°
2026-05-04 23:27 60.35382 13.72386 38030 ft 538 kts 109°
2026-05-04 23:27 60.34319 13.79538 37782 ft 538 kts 109°
2026-05-04 23:27 60.33237 13.86818 37534 ft 538 kts 109°
2026-05-04 23:28 60.32169 13.93984 37284 ft 538 kts 110°
2026-05-04 23:28 60.31085 14.01226 37043 ft 538 kts 110°
2026-05-04 23:28 60.29998 14.08463 36790 ft 538 kts 110°
2026-05-04 23:28 60.28920 14.15612 36544 ft 538 kts 110°
2026-05-04 23:29 60.27823 14.22859 36295 ft 538 kts 110°
2026-05-04 23:29 60.26720 14.30108 36049 ft 541 kts 110°
2026-05-04 23:29 60.25609 14.37370 35789 ft 545 kts 110°
2026-05-04 23:29 60.24492 14.44651 35534 ft 549 kts 110°
2026-05-04 23:30 60.23361 14.51990 35250 ft 549 kts 111°
2026-05-04 23:30 60.22235 14.59280 34608 ft 546 kts 111°
2026-05-04 23:30 60.21103 14.66569 33736 ft 549 kts 111°
2026-05-04 23:30 60.19953 14.73932 32787 ft 553 kts 111°
2026-05-04 23:31 60.18789 14.81352 32366 ft 558 kts 111°
2026-05-04 23:31 60.17612 14.88825 32123 ft 563 kts 111°
2026-05-04 23:31 60.16435 14.96282 31860 ft 564 kts 111°
2026-05-04 23:31 60.15241 15.03806 31599 ft 565 kts 111°
2026-05-04 23:32 60.14046 15.11307 31341 ft 565 kts 112°
2026-05-04 23:32 60.12850 15.18782 31096 ft 566 kts 112°
2026-05-04 23:32 60.11645 15.26282 30841 ft 567 kts 112°
2026-05-04 23:32 60.10416 15.33894 30581 ft 567 kts 112°
2026-05-04 23:33 60.09212 15.41319 30334 ft 568 kts 112°
2026-05-04 23:33 60.07982 15.48873 30082 ft 568 kts 112°
2026-05-04 23:33 60.06764 15.56325 29724 ft 566 kts 112°
2026-05-04 23:33 60.05532 15.63839 28753 ft 566 kts 112°
2026-05-04 23:34 60.04295 15.71338 27920 ft 564 kts 112°
2026-05-04 23:34 60.03063 15.78788 27173 ft 560 kts 112°
2026-05-04 23:34 60.01854 15.86064 26447 ft 556 kts 112°
2026-05-04 23:34 60.00640 15.93372 25708 ft 552 kts 112°
2026-05-04 23:35 59.99427 16.00640 24976 ft 548 kts 113°
2026-05-04 23:35 59.98210 16.07853 24247 ft 544 kts 113°
2026-05-04 23:35 59.97016 16.14908 23529 ft 539 kts 114°
2026-05-04 23:35 59.95815 16.21981 22814 ft 535 kts 114°
2026-05-04 23:36 59.94617 16.29004 22093 ft 530 kts 113°
2026-05-04 23:36 59.93443 16.35866 21386 ft 525 kts 113°
2026-05-04 23:36 59.92268 16.42720 20679 ft 519 kts 113°
2026-05-04 23:36 59.91113 16.49453 19981 ft 514 kts 113°
2026-05-04 23:37 59.89952 16.56217 19279 ft 508 kts 113°
2026-05-04 23:37 59.88805 16.62815 18593 ft 502 kts 113°
2026-05-04 23:37 59.87676 16.69278 17911 ft 496 kts 113°
2026-05-04 23:37 59.86537 16.75787 17338 ft 487 kts 113°
2026-05-04 23:38 59.85443 16.82030 16709 ft 480 kts 113°
2026-05-04 23:38 59.84337 16.88309 16015 ft 474 kts 113°
2026-05-04 23:38 59.83259 16.94453 15377 ft 467 kts 112°
2026-05-04 23:38 59.82587 17.00679 14749 ft 465 kts 96°
2026-05-04 23:39 59.82739 17.07065 14268 ft 456 kts 83°
2026-05-04 23:39 59.83160 17.13173 13917 ft 445 kts 83°
2026-05-04 23:39 59.83562 17.19267 13552 ft 439 kts 83°
2026-05-04 23:39 59.83923 17.25149 13311 ft 425 kts 84°
2026-05-04 23:40 59.84154 17.29046 13132 ft 415 kts 84°
2026-05-04 23:40 59.84556 17.36007 12813 ft 399 kts 85°
2026-05-04 23:40 59.84859 17.41402 12570 ft 387 kts 85°
2026-05-04 23:40 59.85150 17.46648 12346 ft 375 kts 85°
2026-05-04 23:41 59.85427 17.51690 12143 ft 364 kts 85°
2026-05-04 23:41 59.85695 17.56584 11767 ft 348 kts 85°
2026-05-04 23:41 59.85953 17.61349 10969 ft 343 kts 85°
2026-05-04 23:41 59.86201 17.66003 10248 ft 334 kts 85°
2026-05-04 23:42 59.86444 17.70513 9852 ft 319 kts 85°
2026-05-04 23:42 59.86675 17.74926 9528 ft 325 kts 85°
2026-05-04 23:42 59.86905 17.79360 9256 ft 322 kts 85°
2026-05-04 23:42 59.87134 17.83784 8859 ft 318 kts 85°
2026-05-04 23:43 59.87355 17.88066 8514 ft 314 kts 85°
2026-05-04 23:43 59.87579 17.92434 8188 ft 314 kts 85°
2026-05-04 23:43 59.87799 17.96751 7873 ft 313 kts 85°
2026-05-04 23:43 59.88016 18.01027 7558 ft 312 kts 84°
2026-05-04 23:44 59.88240 18.05328 7246 ft 310 kts 85°
2026-05-04 23:44 59.88452 18.09543 6946 ft 308 kts 85°
2026-05-04 23:44 59.88660 18.13787 6627 ft 306 kts 85°
2026-05-04 23:44 59.88867 18.18027 6328 ft 306 kts 85°
2026-05-04 23:45 59.89073 18.22223 6017 ft 306 kts 85°
2026-05-04 23:45 59.89233 18.26467 5702 ft 304 kts 91°
2026-05-04 23:45 59.88788 18.30454 5409 ft 296 kts 121°
2026-05-04 23:45 59.87463 18.33428 5144 ft 280 kts 154°
2026-05-04 23:46 59.85679 18.34580 4873 ft 263 kts 182°
2026-05-04 23:46 59.83934 18.34096 4617 ft 252 kts 205°
2026-05-04 23:46 59.82301 18.32881 4451 ft 245 kts 201°
2026-05-04 23:46 59.80653 18.32345 4349 ft 237 kts 191°
2026-05-04 23:47 59.79050 18.32085 4252 ft 227 kts 191°
2026-05-04 23:47 59.77499 18.31851 4153 ft 218 kts 188°
2026-05-04 23:47 59.76031 18.31659 4052 ft 208 kts 191°
2026-05-04 23:47 59.74626 18.31443 3977 ft 197 kts 192°
2026-05-04 23:48 59.73299 18.31242 3906 ft 184 kts 192°
2026-05-04 23:48 59.72066 18.31037 3785 ft 173 kts 194°
2026-05-04 23:48 59.70992 18.30285 3535 ft 157 kts 226°
2026-05-04 23:48 59.70410 18.28599 3354 ft 146 kts 248°
2026-05-04 23:49 59.70129 18.26720 3132 ft 142 kts 256°
2026-05-04 23:49 59.69887 18.24834 2900 ft 139 kts 254°
2026-05-04 23:49 59.69633 18.23025 2698 ft 135 kts 252°
2026-05-04 23:49 59.69384 18.21268 2519 ft 131 kts 253°
2026-05-04 23:50 59.69142 18.19532 2344 ft 131 kts 252°
2026-05-04 23:50 59.68915 18.17790 2162 ft 129 kts 255°
2026-05-04 23:50 59.68705 18.16108 1997 ft 124 kts 253°
2026-05-04 23:50 59.68496 18.14478 1838 ft 122 kts 253°
2026-05-04 23:51 59.68292 18.12888 1691 ft 118 kts 252°
2026-05-04 23:51 59.68088 18.11304 1518 ft 119 kts 254°
2026-05-04 23:51 59.67886 18.09688 1358 ft 121 kts 253°
2026-05-04 23:51 59.67680 18.08067 1199 ft 122 kts 253°
2026-05-04 23:52 59.67472 18.06435 1035 ft 123 kts 253°
2026-05-04 23:52 59.67262 18.04792 872 ft 122 kts 253°
2026-05-04 23:52 59.67058 18.03170 714 ft 123 kts 253°
2026-05-04 23:52 59.66917 18.02067 598 ft 122 kts 253°
2026-05-04 23:53 59.66634 17.99834 376 ft 126 kts 254°
2026-05-04 23:53 59.66422 17.98169 228 ft 127 kts 254°
2026-05-04 23:53 59.66277 17.97039 210 ft 121 kts 258°
2026-05-04 23:53 59.66033 17.95126 141 ft 74 kts 256°
2026-05-04 23:54 59.65995 17.94816 144 ft 7 kts 256°
2026-05-04 23:54 59.65980 17.94745 144 ft 13 kts 240°
2026-05-04 23:54 59.65856 17.94486 144 ft 28 kts 220°
2026-05-04 23:54 59.65795 17.94380 144 ft 0 kts 219°
2026-05-04 23:55 59.65787 17.94365 144 ft 12 kts 222°
2026-05-04 23:55 59.65679 17.94149 144 ft 9 kts 231°
2026-05-04 23:55 59.65607 17.93932 144 ft 14 kts 236°
2026-05-04 23:56 59.65503 17.93840 144 ft 9 kts 173°
2026-05-04 23:56 59.65478 17.93845 144 ft 9 kts 176°
2026-05-04 23:56 59.65431 17.93771 144 ft 9 kts 251°
2026-05-04 23:56 59.65430 17.93761 144 ft 0 kts 252°